Regional Weather Roundup
Issued by NWS Wakefield, VA

Home | Current Version | Previous Version | Graphics & Text | Print | Product List | Glossary On
Versions: 1 2 3 4 5 6 7 8 9 10 11 12 13 14 15 16 17 18 19 20 21 22 23 24 25 26 27 28 29 30 31 32 33 34 35 36 37 38 39 40 41 42 43 44 45 46 47 48 49 50
000
ASUS41 KAKQ 271010
RWRAKQ

REGIONAL WEATHER ROUNDUP
NATIONAL WEATHER SERVICE WAKEFIELD VA
600 AM EDT WED AUG 27 2014

Note: "fair" indicates few or no clouds below 12,000 feet with no
significant weather and/or obstructions to visibility. * = Denotes
station may not report precipitation (e.g., rain,snow,etc.),
thunder or fog.

VAZ042-051-052>054-056-271100-
NORTHERN VIRGINIA

CITY           SKY/WX    TMP DP  RH WIND       PRES   REMARKS
WASH NATIONAL  PTCLDY    70  64  81 CALM      30.06R
DULLES         CLEAR     61  60  97 NW3       30.07R
FORT BELVOIR   CLEAR     61  59  94 CALM      30.07R
QUANTICO       CLEAR     64  61  90 NW8       30.07R
FREDERICKSBRG* CLEAR     61  61 100 CALM      30.06R
STAFFORD*      FOG       57  57 100 CALM      30.11R VSB 1/2
WARRENTON      FOG       54  54 100 CALM      30.07R VSB 1/4
CULPEPER*      CLEAR    N/A N/A N/A CALM      30.08R FOG
MANASSAS*      CLOUDY    61  59  94 CALM      30.07R VSB 1/4
LEESBURG*      CLEAR     61  61 100 CALM      30.08R
WINCHESTER     CLEAR     59  55  88 CALM      30.09F
$$

VAZ048-049-060>072-079>083-271100-
CENTRAL AND SOUTH CENTRAL VIRGINIA...AND NORTH CENTRAL NORTH CAROLINA

CITY           SKY/WX    TMP DP  RH WIND       PRES   REMARKS
RICHMOND       CLEAR     61  57  87 CALM      30.07R
CHESTERFIELD*  SUNNY    N/A N/A N/A CALM      30.08R
HANOVER        CLEAR     58  56  93 CALM      30.08R
TAPPAHANNOCK*  CLEAR     56  53  90 CALM      30.07S
CHARLOTTSVILLE CLEAR     57  56  96 CALM      30.08R
ORANGE*        CLEAR     57  55  94 CALM      30.09R
LOUISA*          N/A     55  55 100 CALM      30.07R FOG
FARMVILLE*     MOCLDY    55  54  94 CALM      30.06R FOG
SOUTH HILL*    CLEAR     59  59 100 CALM      30.11S
ROANOKE RAPIDS DRZL/FOG  59  59 100 CALM      30.05S VSB<1/4
RALEIGH        PTCLDY    59  57  93 N3        30.06F
$$

VAZ088>098-271100-
SOUTHEAST VIRGINIA

CITY           SKY/WX    TMP DP  RH WIND       PRES   REMARKS
NORFOLK        PTCLDY    73  68  84 N9        30.03R
VIRGINIA BEACH PTCLDY    72  69  90 N7        30.02R
NORFOLK NAVAL  PTCLDY    73  68  84 NE10      30.04S
WEST POINT*    CLOUDY    60  58  92 CALM      30.08R VSB 1/2
NEWPORT NEWS   PTCLDY    64  61  90 CALM      30.04S
LANGLEY AFB    CLEAR     64  64 100 NE2       30.03S
FORT EUSTIS    CLEAR     66 N/A N/A CALM      30.03R
WILLIAMSBURG*  CLEAR     64  63  94 N6        30.06R
FRANKLIN*      PTCLDY    57 N/A N/A CALM      30.04S
WAKEFIELD      FOG       59  58  96 CALM      30.05S VSB 1/4
$$

VAZ020-022-025-037-045-271100-
WESTERN AND SOUTHWEST VIRGINIA

CITY           SKY/WX    TMP DP  RH WIND       PRES   REMARKS
STAUNTON*      PTCLDY    52  50  93 CALM      30.13S
HOT SPRINGS VA CLEAR     57  56  97 NW10      30.23R
LYNCHBURG      CLEAR     54  54 100 CALM      30.11R FOG
DANVILLE       CLEAR     58  55  90 CALM      30.09R
MARTINSVILLE   CLEAR     53  53 100 CALM      30.13R FOG
ROANOKE        CLEAR     61  57  87 CALM      30.14R
BLACKSBURG     FOG       54  54 100 CALM      30.17S VSB<1/4
DUBLIN*        CLEAR     53  53 100 CALM      30.17S
MARION*        FOG      N/A N/A N/A CALM      30.20S VSB 1/2
HILLSVILLE*    PTCLDY    49  49 100 CALM      30.17S FOG
RICHLANDS*     SUNNY     60  56  85 CALM      30.17S
WISE*          CLEAR     61  59  94 CALM      30.19R
ABINGDON*      CLEAR     57  56  94 E6        30.15S
$$

MDZ021>025-VAZ099-100-271100-
SOUTHERN MARYLAND AND THE DELMARVA PENINSULA

CITY           SKY/WX    TMP DP  RH WIND       PRES   REMARKS
PATUXENT RIVER CLEAR     60  59  96 CALM      30.06R
BAY BRIDGE APT   N/A     64  64 100 CALM      30.06R
LEONARDTOWN    CLEAR     59  57  94 CALM      30.08R
DOVER          CLEAR     62  62 100 S3        30.05R
GEORGETOWN     FOG       59  58  96 CALM      30.07S VSB 1/4
EASTON         CLEAR     62  62 100 CALM      30.10R
CAMBRIDGE      CLOUDY    61  59  94 CALM      30.06R VSB 1/2
SALISBURY      FOG       59  57  93 CALM      30.07R VSB 1/4
OCEAN CITY     FOG       59  58  96 CALM      30.06S VSB 1/4
WALLOPS ISLAND PTCLDY    64  63  96 N5        30.06R FOG
ACCOMACK*      NOT AVBL
$$

NCZ012>017-030>032-271100-
EASTERN NORTH CAROLINA

CITY           SKY/WX    TMP DP  RH WIND       PRES   REMARKS
ELIZABETH CITY MOCLDY    69  68  96 N12       30.00S
AHOSKIE*       CLOUDY    61  60  98 CALM      30.04S VSB 3/4
EDENTON*       FOG       68  67  98 N6        30.01S VSB 3/4
CURRITUCK*     CLEAR     73  70  91 N8        30.01S
KILL DEVIL HLS CLEAR     74  72  93 NE6       29.97F
MANTEO         CLEAR     73  71  93 NE10      29.98F
CAPE HATTERAS  PTCLDY    74  74 100 NE12G20   29.95S
GOLDSBORO      CLOUDY    64  64 100 N6        30.01R FOG
WASHINGTON     CLOUDY    66  65  99 N7        30.01R VSB 3/4
GREENVILLE     LGT RAIN  64  64 100 N6        30.03S VSB 3/4
NEW BERN       CLOUDY    71  67  87 N7        30.00R
WILMINGTON     CLEAR     67  65  93 N6        29.98R
$$

VAZ048-271100-
ELSEWHERE

CITY           SKY/WX    TMP DP  RH WIND       PRES   REMARKS
HARRISBURG PA  CLEAR     65  61  87 CALM      30.06S
BALTIMORE      PTCLDY    63  61  93 CALM      30.06R
ANNAPOLIS      CLEAR     67  64  90 MISG      30.05R
ANDREWS AFB    CLEAR     61  61  99 S6        30.06R
WILMINGTON DE  CLEAR     64  61  90 CALM      30.06R
PHILADELPHIA   CLEAR     67  63  87 S5        30.06R
WILDWOOD NJ*   CLEAR     61  55  82 CALM      30.08R
ATLANTIC CITY  CLEAR     62  60  93 S5        30.06R
HENDERSON NC   CLEAR     58  57  96 CALM      30.07S FOG
GREENSBORO     CLEAR     62  58  86 N3        30.08S
ROCKY MOUNT    CLOUDY    63  62  97 N7        30.05R FOG
FAYETTEVILLE   CLEAR     64  61  90 N8        30.02S
CHARLOTTE      CLEAR     58  57  97 CALM      30.08S
$$

VAZ100-271100-
MARINE

STATION/POSITION TIME  TEMP    WIND        PRES    WAVE   SWELL
                       AIR SEA DIR/SP/G            HT/PER HT/PER
                 (UTC) (F)     (DEG/KT/KT) (MB)    (FT/S) (FT/S)
44066 TX TWR #4  1000   71 72  300/  4/  4 1017.9R   4/ 8   3/ 8
CAPE MAY NJ      1000   66 79  130/  2/  2 1017.6R
LEWES DE         1000   65 76  220/  3/  4 1017.7F
15NM E FENWICK I 1000   72 73              1017.7S   4/ 8
OCEAN-CITY-INLET 1000   68 75   20/  3/  4 1017.3F
WACHAPREAGUE VA  1000   67 76  360/  2/  4 1017.6R
THOMAS POINT MD  1000   71 78  200/  5/  6 1018.7R
GOOSES REEF MD   1000   72     240/  4/  4 1018.1S
COVE POINT MD    1000   70     230/  3/  4 1017.7S
SOLOMONS ISLAND  1000      79                N/A
BISHOPS HEAD MD  1000   71 76  130/  3/  3 1017.4R
PINEY POINT MD   1000          260/  3/  3   N/A
POTOMAC MD       1000   73      CALM  /  2 1017.1S
CAMBRIDGE MD     1000   64 78  180/  1/  3 1017.5F
LEWISETTA VA     1000   67 78  260/  5/  5 1017.5R
RAPPAHANNOCK LGT 1000           20/  9/ 10 1017.8R
STINGRAY PT      1000   72      40/  6/  8   N/A
YORK RVR RNG VA  1000   72      30/  8/  9 1016.7R
YORKTOWN VA      1000   70 79   20/  7/  8 1017.0R
JAMESTOWN VA     1000   65      10/  4/  6   N/A
DOMINION TERM VA 1000   70      20/  4/  5 1017.0S
KIPTOPEKE VA     1000      80   30/  6/  8   N/A
CHES BAY BRIDGE  1000   73 77   10/ 12/ 14 1016.2S
CAPE HENRY VA    1000   73     360/ 13/ 14 1015.4S
CHESAPEAKE LGHT  0900   73      30/ 13/ 14 1016.8F
WILLOUBY STN VA  1000   73      30/  9/ 10 1015.6F
S CRANEY ISL VA  1000           10/  6/  8 1016.5S
CAPE HENRY BUOY  1000      76                N/A     4/12   2/12
1ST LANDING BUOY 1000   73      10/ 12/ 14 1016.4F
CAPE CHARLES BUO 1000      76                N/A     4/11   3/11
OFFSHORE WE BUOY 1000      75                N/A     6/13   5/13
64NM E OF VA BCH 1000   77 78   50/ 14/ 16 1015.0R   6/12   5/12
DUCK PIER NC     1000   74 76   30/ 15/ 16 1014.8S
44056 DUCK FRF   1000                        N/A     5/13   3/13
OREGON INLET NC  1000   75 78   20/ 11/ 18 1014.6F
HATTERAS NC      1000   76 78   30/ 12/ 18 1014.5R
DIAMOND SHLS NC  1000   77      10/ 19/ 23 1012.7F   7/11   5/11
CAPE LOOKOUT NC  0900   74      20/ 12/ 15 1013.9S
$$


USA.gov is the U.S. government's official web portal to all federal, state and local government web resources and services.